Regional Weather Roundup
Issued by NWS Newport/Morehead, NC

Current Version | Previous Version | Text Only | Print | Product List | Glossary On
Versions: 1 2 3 4 5 6 7 8 9 10 11 12 13 14 15 16 17 18 19 20 21 22 23 24 25 26 27 28 29 30 31 32 33 34 35 36 37 38 39 40 41 42 43 44 45 46 47 48 49 50
000
ASUS42 KMHX 252226
RWRMHX
WEATHER ROUNDUP FOR EASTERN NORTH CAROLINA
NATIONAL WEATHER SERVICE NEWPORT/MOREHEAD CITY NC
600 PM EDT MON SEP 25 2017

NOTE: "FAIR" INDICATES FEW OR NO CLOUDS BELOW 12,000 FEET
WITH NO SIGNIFICANT WEATHER AND/OR OBSTRUCTIONS TO VISIBILITY

NCZ015>017-031-032-045>047-102-103-252300-
NORTH COAST

CITY           SKY/WX    TMP DP  RH WIND       PRES   REMARKS
EDENTON        CLOUDY    76  70  80 NE9       29.93R
ELIZABETH CITY CLOUDY    74  70  87 NE20      29.93S
KITTY HAWK     LGT RAIN  69  68  96 N13       29.89S
MANTEO         CLOUDY    70  69  96 NE16G26   29.90S

$$

NCZ045>047-081-094-103-104-252300-
CENTRAL COAST

CITY           SKY/WX    TMP DP  RH WIND       PRES   REMARKS
FRISCO         CLOUDY    76  74  93 NE14G29   29.83S

$$

NCZ095-097-098-100-101-252300-
SOUTHERN COAST

CITY           SKY/WX    TMP DP  RH WIND       PRES   REMARKS
BEAUFORT       CLOUDY    76  73  91 N17G26    29.83R
CEDAR ISLAND   NOT AVBL
JACKSONVILLE   CLOUDY    79  72  79 N14       29.85R
PINEY ISLAND   FLURRIES N/A N/A N/A N20G29    29.84S
WILMINGTON     CLOUDY    79  71  76 N12       29.85S


$$

NCZ011>013-027>030-043-044-078>080-089-090>093-098-252300-
COASTAL PLAIN

CITY           SKY/WX    TMP DP  RH WIND       PRES   REMARKS
AHOSKIE        MOSUNNY   76  67  74 NE13      29.93S
CLINTON        CLOUDY    78  70  77 N3        29.91R
ELIZABETHTOWN  NOT AVBL
GOLDSBORO      CLOUDY    79  73  82 N8        29.89R
GREENVILLE     CLOUDY    81  68  65 NE7       29.93R
HAVELOCK       CLOUDY    78  72  81 NE18      29.85S
KENANSVILLE    CLOUDY    77  70  78 N6        29.89S
KINSTON        CLOUDY    79  68  69 NE8       29.90
NEW BERN       CLOUDY    78  71  79 NE14G20   29.87F
RICHLANDS      CLOUDY    79  72  78 N9        29.87F
ROCKY MOUNT    PTSUNNY   81  68  64 NE13G21   29.92S
WASHINGTON     CLOUDY    78  69  76 NE10      29.90S
WHITEVILLE     CLOUDY    77  69  77 N5        29.88S

$$

AMZ130-135-150-152-154-156-158-170-250-252-270-ANZ085-086-088-633-658-670-252300-
MARINE OBSERVATIONS

STATION/POSITION TIME  TEMP    WIND        PRES    WAVE   SWELL
                       AIR SEA DIR/SP/G            HT/PER HT/PER
                 (UTC) (F)     (DEG/KT/KT) (MB)    (FT/S) (FT/S)
CHESAPEAKE LIGHT NOT AVBL
64 E VA BEACH    2150   71 71   40/ 17/ 21 1013.4   12/12  11/12
DUCK             2200   72 77   30/ 24/ 28 1012.5
2 E DUCK         2200      76                N/A     8/13   5/13
OREGON INLET     2200   72 76   20/ 20/ 24 1011.4
13E OREGON INLT  2148      75                N/A    13/15  13/15
HATTERAS CG      2200   75 77   30/ 18/ 28 1009.9
DIAMOND BUOY     2150   76 79   30/ 27/ 31 1008.0   16/14  15/14
CAPE LOOKOUT     2200   76      10/ 21/ 25 1009.2
BEAUFORT LAB     2200   76 75   20/ 14/ 23 1009.4
30 SE NEW RVR IN 2208   78      20/ 23/ 31 1008.6
30 SE NEW RVR IN NOT AVBL
27 SE WRIGHTSVLE 2208   79 80   30/ 21/ 29 1009.0
5 SE WRIGHTSVLE  NOT AVBL
225 S CAPE HAT   2150   79 81  340/ 41/ 52  992.7   19/11  13/11
41 SE CHARLESTON 2210   77 81  340/ 16/ 21 1010.0

$$




USA.gov is the U.S. government's official web portal to all federal, state and local government web resources and services.